Location: Doverdale
(52.2833°N, 2.2000°W)
Time: 12:03:16
(UTC+00:00)

BREEZE-M R/B - Pass Details

Date: 29 October 2020
Orbit: 309 x 4522 km, 49.7° (Epoch: 24 November)

Event Time Altitude Azimuth Distance (km) Brightness Sun altitude
Rises 17:46:57 0° 266° (W) 2,314 8.3 -10.0°
Reaches altitude 10° 17:48:32 10° 262° (W) 1,626 6.9 -10.3°
Maximum altitude 17:51:56 65° 180° (S) 732 3.5 -10.8°
Enters shadow 17:57:48 13° 101° (E) 2,810 5.8 -11.7°
